TimeWET,TemperatureF,Dew PointF,Humidity,Sea Level PressureIn,VisibilityMPH,Wind Direction,Wind SpeedMPH,Gust SpeedMPH,PrecipitationIn,Events,Conditions,WindDirDegrees,DateUTC
12:00 AM,72,64,68,30.05,6,WSW,3.5,,,,Partly Cloudy,250,2012-11-06 00:00:00
12:00 AM,73.4,62.6,69,30.09,6.2,WSW,3.5,-,N/A,,Mostly Cloudy,240,2012-11-06 00:00:00
12:30 AM,69.8,64.4,83,30.09,6.2,South,8.1,-,N/A,Rain,Rain,180,2012-11-06 00:30:00
1:00 AM,68.0,66.2,94,30.09,5.0,South,6.9,-,N/A,Rain,Rain,170,2012-11-06 01:00:00
1:30 AM,68.0,64.4,88,30.06,6.2,SE,13.8,-,N/A,Rain,Rain,140,2012-11-06 01:30:00
2:00 AM,66.2,64.4,94,30.01,6.2,SE,18.4,-,N/A,Rain,Rain,130,2012-11-06 02:00:00
2:30 AM,68.0,62.6,83,30.01,6.2,SE,15.0,-,N/A,,Scattered Clouds,130,2012-11-06 02:30:00
3:00 AM,67,64,85,29.95,6,East,10.4,,,,Mostly Cloudy,100,2012-11-06 03:00:00
3:00 AM,68.0,62.6,83,30.01,6.2,East,11.5,-,N/A,,Scattered Clouds,100,2012-11-06 03:00:00
3:30 AM,66.2,64.4,94,29.98,6.2,NE,8.1,-,N/A,,Scattered Clouds,50,2012-11-06 03:30:00
4:00 AM,66.2,62.6,88,29.98,6.2,NNE,8.1,-,N/A,,Scattered Clouds,30,2012-11-06 04:00:00
4:30 AM,66.2,64.4,94,29.98,6.2,ENE,5.8,-,N/A,,Unknown,60,2012-11-06 04:30:00
5:00 AM,66.2,64.4,94,29.98,6.2,ENE,4.6,-,N/A,,Unknown,70,2012-11-06 05:00:00
5:30 AM,66.2,64.4,94,29.98,6.2,ESE,4.6,-,N/A,,Scattered Clouds,120,2012-11-06 05:30:00
6:00 AM,67,65,92,29.96,6,SE,3.5,,,,Mostly Cloudy,130,2012-11-06 06:00:00
6:00 AM,66.2,64.4,94,30.01,6.2,SE,2.3,-,N/A,,Scattered Clouds,130,2012-11-06 06:00:00
6:30 AM,66.2,64.4,94,30.01,6.2,East,3.5,-,N/A,,Scattered Clouds,100,2012-11-06 06:30:00
7:00 AM,66.2,66.2,100,30.01,6.2,Calm,Calm,-,N/A,,Scattered Clouds,0,2012-11-06 07:00:00
7:30 AM,66.2,64.4,94,30.01,6.2,West,3.5,-,N/A,,Scattered Clouds,260,2012-11-06 07:30:00
8:00 AM,66.2,64.4,94,30.01,6.2,West,6.9,-,N/A,,Scattered Clouds,280,2012-11-06 08:00:00
8:30 AM,68.0,64.4,88,30.01,6.2,West,6.9,-,N/A,,Scattered Clouds,280,2012-11-06 08:30:00
9:00 AM,70,62,70,29.99,6,WSW,4.6,,,,Mostly Cloudy,240,2012-11-06 09:00:00
9:00 AM,69.8,62.6,78,30.04,6.2,WSW,4.6,-,N/A,,Scattered Clouds,250,2012-11-06 09:00:00
9:30 AM,71.6,62.6,73,30.04,6.2,WSW,4.6,-,N/A,,Scattered Clouds,240,2012-11-06 09:30:00
10:00 AM,73.4,62.6,69,30.04,6.2,SSW,5.8,-,N/A,,Scattered Clouds,210,2012-11-06 10:00:00
10:30 AM,73.4,60.8,65,30.04,6.2,WSW,5.8,-,N/A,,Scattered Clouds,240,2012-11-06 10:30:00
11:00 AM,75.2,62.6,65,30.04,6.2,Variable,3.5,-,N/A,,Scattered Clouds,0,2012-11-06 11:00:00
11:30 AM,75.2,60.8,61,30.04,6.2,West,3.5,-,N/A,,Scattered Clouds,280,2012-11-06 11:30:00
12:00 PM,76,61,51,29.94,6,South,2.3,,,,Partly Cloudy,170,2012-11-06 12:00:00
12:00 PM,77.0,60.8,57,30.01,6.2,Variable,2.3,-,N/A,,Scattered Clouds,0,2012-11-06 12:00:00
12:30 PM,77.0,62.6,61,30.01,6.2,WNW,3.5,-,N/A,,Scattered Clouds,290,2012-11-06 12:30:00
1:00 PM,77.0,62.6,61,30.01,6.2,Variable,3.5,-,N/A,,Scattered Clouds,0,2012-11-06 13:00:00
1:30 PM,78.8,62.6,57,30.01,6.2,Variable,2.3,-,N/A,,Scattered Clouds,0,2012-11-06 13:30:00
2:00 PM,75.2,64.4,69,29.98,6.2,NW,4.6,-,N/A,,Scattered Clouds,310,2012-11-06 14:00:00
2:30 PM,75.2,64.4,69,30.01,6.2,NNW,8.1,-,N/A,,Scattered Clouds,330,2012-11-06 14:30:00
3:00 PM,76,62,52,29.94,6,WNW,6.9,,,,Mostly Cloudy,300,2012-11-06 15:00:00
3:00 PM,75.2,62.6,65,30.01,6.2,NW,6.9,-,N/A,,Scattered Clouds,310,2012-11-06 15:00:00
3:30 PM,75.2,64.4,69,30.01,6.2,WNW,4.6,-,N/A,,Scattered Clouds,290,2012-11-06 15:30:00
4:00 PM,75.2,62.6,65,29.98,6.2,ESE,4.6,-,N/A,,Scattered Clouds,110,2012-11-06 16:00:00
4:30 PM,75.2,62.6,65,29.98,6.2,East,8.1,-,N/A,,Scattered Clouds,90,2012-11-06 16:30:00
5:00 PM,75.2,62.6,65,29.95,6.2,ESE,15.0,-,N/A,,Scattered Clouds,110,2012-11-06 17:00:00
5:30 PM,75.2,64.4,69,29.95,6.2,East,9.2,-,N/A,,Scattered Clouds,100,2012-11-06 17:30:00
6:00 PM,72,65,71,29.88,6,East,6.9,,,,Partly Cloudy,80,2012-11-06 18:00:00
6:00 PM,71.6,64.4,78,29.95,6.2,East,8.1,-,N/A,,Scattered Clouds,90,2012-11-06 18:00:00
6:30 PM,71.6,64.4,78,29.95,6.2,ENE,5.8,-,N/A,,Scattered Clouds,70,2012-11-06 18:30:00
7:00 PM,71.6,64.4,78,29.95,6.2,NE,6.9,-,N/A,,Scattered Clouds,40,2012-11-06 19:00:00
7:30 PM,71.6,64.4,78,29.95,6.2,NE,10.4,-,N/A,,Scattered Clouds,40,2012-11-06 19:30:00
8:00 PM,71.6,64.4,78,29.95,6.2,NE,4.6,-,N/A,,Scattered Clouds,40,2012-11-06 20:00:00
8:30 PM,69.8,64.4,83,29.98,6.2,Calm,Calm,-,N/A,,Scattered Clouds,0,2012-11-06 20:30:00
9:00 PM,70,64,77,29.93,6,Calm,Calm,,,,Partly Cloudy,,2012-11-06 21:00:00
9:00 PM,69.8,64.4,83,29.98,6.2,Calm,Calm,-,N/A,,Scattered Clouds,0,2012-11-06 21:00:00
9:30 PM,68.0,64.4,88,30.01,6.2,SW,6.9,-,N/A,,Scattered Clouds,220,2012-11-06 21:30:00
10:00 PM,66.2,64.4,94,29.98,6.2,WSW,5.8,-,N/A,,Scattered Clouds,240,2012-11-06 22:00:00
10:30 PM,66.2,64.4,94,29.98,6.2,WSW,8.1,-,N/A,,Scattered Clouds,250,2012-11-06 22:30:00
11:00 PM,64.4,64.4,100,30.01,6.2,WSW,6.9,-,N/A,,Scattered Clouds,250,2012-11-06 23:00:00
11:30 PM,64.4,64.4,100,30.01,6.2,WSW,5.8,-,N/A,,Unknown,240,2012-11-06 23:30:00
11:31 PM,64.4,64.4,100,30.01,6.2,WSW,5.8,-,N/A,,Unknown,240,2012-11-06 23:31:00